Location: Dal�� Lhota
(48.7500°N, 14.0167°E)
Time: 02:21:09
(UTC+00:00)

Vanguard 3 - Pass Details

Date: 05 August 2021
Orbit: 510 x 3260 km, 33.3° (Epoch: 16 September)

Event Time Altitude Azimuth Distance (km) Brightness Sun altitude
Rises 17:28:46 0° 248° (WSW) 5,421 12.3 9.5°
Reaches altitude 10° 17:32:01 10° 243° (WSW) 4,745 11.9 9.0°
Maximum altitude 17:45:37 47° 176° (S) 3,583 10.4 6.8°
Drops below altitude 10° 18:03:43 10° 112° (ESE) 6,191 11.0 4.0°
Sets 18:08:44 0° 107° (ESE) 7,140 11.3 3.2°
